Time,TemperatureF,DewpointF,PressureIn,WindDirection,WindDirectionDegrees,WindSpeedMPH,WindSpeedGustMPH,Humidity,HourlyPrecipIn,Conditions,Clouds,dailyrainin,SoftwareType,DateUTC
2013-08-22 00:00:00,71.8,68.1,29.99,SW,220,0.0,0.0,88,0.00,,,0.00,Wunderground v.1.15,2013-08-22 05:00:00,
2013-08-22 00:06:00,71.8,68.1,29.98,SW,220,0.0,0.0,88,0.00,,,0.00,Wunderground v.1.15,2013-08-22 05:06:00,
2013-08-22 00:12:00,71.6,67.9,29.99,SW,220,0.0,0.0,88,0.00,,,0.00,Wunderground v.1.15,2013-08-22 05:12:00,
2013-08-22 00:18:00,71.7,68.0,29.98,SW,220,0.0,0.0,88,0.00,,,0.00,Wunderground v.1.15,2013-08-22 05:18:00,
2013-08-22 00:24:00,71.7,68.0,29.98,SW,220,0.0,0.0,88,0.00,,,0.00,Wunderground v.1.15,2013-08-22 05:24:00,
2013-08-22 00:30:00,71.6,67.9,29.98,SW,220,0.0,0.0,88,0.00,,,0.00,Wunderground v.1.15,2013-08-22 05:30:00,
2013-08-22 00:36:00,71.2,67.5,29.98,SW,220,0.0,0.0,88,0.00,,,0.00,Wunderground v.1.15,2013-08-22 05:36:00,
2013-08-22 00:42:00,71.2,67.8,29.98,SW,220,0.0,0.0,89,0.00,,,0.00,Wunderground v.1.15,2013-08-22 05:42:00,
2013-08-22 00:48:00,71.3,67.9,29.98,SW,220,0.0,0.0,89,0.00,,,0.00,Wunderground v.1.15,2013-08-22 05:48:00,
2013-08-22 00:54:00,71.5,67.8,29.98,SW,220,0.0,0.0,88,0.00,,,0.00,Wunderground v.1.15,2013-08-22 05:54:00,
2013-08-22 01:01:00,71.9,68.2,29.98,SW,220,0.0,0.0,88,0.00,,,0.00,Wunderground v.1.15,2013-08-22 06:01:00,
2013-08-22 01:06:00,72.2,68.1,29.98,SW,220,0.0,0.0,87,0.00,,,0.00,Wunderground v.1.15,2013-08-22 06:06:00,
2013-08-22 01:12:00,72.4,68.3,29.98,SW,220,0.0,0.0,87,0.00,,,0.00,Wunderground v.1.15,2013-08-22 06:12:00,
2013-08-22 01:18:00,72.5,68.1,29.98,SW,220,0.0,0.0,86,0.00,,,0.00,Wunderground v.1.15,2013-08-22 06:18:00,
2013-08-22 01:24:00,72.5,68.1,29.98,SW,220,0.0,1.0,86,0.00,,,0.00,Wunderground v.1.15,2013-08-22 06:24:00,
2013-08-22 01:30:00,72.3,68.2,29.98,SW,220,1.0,1.0,87,0.00,,,0.00,Wunderground v.1.15,2013-08-22 06:30:00,
2013-08-22 01:36:00,72.2,68.1,29.98,SW,220,1.0,2.0,87,0.00,,,0.00,Wunderground v.1.15,2013-08-22 06:36:00,
2013-08-22 01:42:00,72.1,68.0,29.98,SW,220,1.0,1.0,87,0.00,,,0.00,Wunderground v.1.15,2013-08-22 06:42:00,
2013-08-22 01:48:00,72.2,68.1,29.98,SW,220,0.0,1.0,87,0.00,,,0.00,Wunderground v.1.15,2013-08-22 06:48:00,
2013-08-22 01:54:00,72.1,68.0,29.98,SW,220,0.0,0.0,87,0.00,,,0.00,Wunderground v.1.15,2013-08-22 06:54:00,
2013-08-22 02:00:00,71.9,67.8,29.97,SW,220,0.0,0.0,87,0.00,,,0.00,Wunderground v.1.15,2013-08-22 07:00:00,
2013-08-22 02:06:00,71.7,68.0,29.96,SW,220,0.0,0.0,88,0.00,,,0.00,Wunderground v.1.15,2013-08-22 07:06:00,
2013-08-22 02:12:00,71.5,67.8,29.97,SW,220,0.0,0.0,88,0.00,,,0.00,Wunderground v.1.15,2013-08-22 07:12:00,
2013-08-22 02:18:00,71.4,68.0,29.96,SW,220,0.0,2.0,89,0.00,,,0.00,Wunderground v.1.15,2013-08-22 07:18:00,
2013-08-22 02:24:00,71.6,67.9,29.96,SW,220,2.0,4.0,88,0.00,,,0.00,Wunderground v.1.15,2013-08-22 07:24:00,
2013-08-22 02:30:00,72.1,68.0,29.96,SSW,211,3.0,3.0,87,0.00,,,0.00,Wunderground v.1.15,2013-08-22 07:30:00,
2013-08-22 02:36:00,72.4,68.3,29.96,SSW,211,2.0,3.0,87,0.00,,,0.00,Wunderground v.1.15,2013-08-22 07:36:00,
2013-08-22 02:42:00,72.4,68.3,29.97,SSW,211,1.0,1.0,87,0.00,,,0.00,Wunderground v.1.15,2013-08-22 07:42:00,
2013-08-22 02:48:00,72.4,68.3,29.98,SSW,211,0.0,1.0,87,0.00,,,0.00,Wunderground v.1.15,2013-08-22 07:48:00,
2013-08-22 02:54:00,72.4,68.3,29.98,SSW,211,1.0,1.0,87,0.00,,,0.00,Wunderground v.1.15,2013-08-22 07:54:00,
2013-08-22 03:00:00,72.3,68.2,29.98,SSW,211,0.0,0.0,87,0.00,,,0.00,Wunderground v.1.15,2013-08-22 08:00:00,
2013-08-22 03:06:00,72.3,68.2,29.98,SSW,211,0.0,0.0,87,0.00,,,0.00,Wunderground v.1.15,2013-08-22 08:06:00,
2013-08-22 03:12:00,72.2,68.4,29.98,SSW,211,0.0,0.0,88,0.00,,,0.00,Wunderground v.1.15,2013-08-22 08:12:00,
2013-08-22 03:18:00,72.1,68.3,29.99,SSW,211,0.0,0.0,88,0.00,,,0.00,Wunderground v.1.15,2013-08-22 08:18:00,
2013-08-22 03:24:00,72.0,68.2,29.99,SSW,211,0.0,1.0,88,0.00,,,0.00,Wunderground v.1.15,2013-08-22 08:24:00,
2013-08-22 03:30:00,71.9,68.2,29.99,SSW,211,0.0,0.0,88,0.00,,,0.00,Wunderground v.1.15,2013-08-22 08:30:00,
2013-08-22 03:36:00,71.8,68.4,29.98,SSW,211,0.0,1.0,89,0.00,,,0.00,Wunderground v.1.15,2013-08-22 08:36:00,
2013-08-22 03:42:00,71.8,68.4,29.98,SSW,211,0.0,0.0,89,0.00,,,0.00,Wunderground v.1.15,2013-08-22 08:42:00,
2013-08-22 03:48:00,71.8,68.4,29.98,SSW,211,0.0,0.0,89,0.00,,,0.00,Wunderground v.1.15,2013-08-22 08:48:00,
2013-08-22 03:54:00,71.6,68.2,29.98,SSW,211,0.0,0.0,89,0.00,,,0.00,Wunderground v.1.15,2013-08-22 08:54:00,
2013-08-22 04:00:00,71.5,68.1,29.98,SSW,211,0.0,1.0,89,0.00,,,0.00,Wunderground v.1.15,2013-08-22 09:00:00,
2013-08-22 04:06:00,71.5,68.1,29.99,SSW,211,1.0,2.0,89,0.00,,,0.00,Wunderground v.1.15,2013-08-22 09:06:00,
2013-08-22 04:12:00,71.5,68.1,29.98,SSW,211,2.0,3.0,89,0.00,,,0.00,Wunderground v.1.15,2013-08-22 09:12:00,
2013-08-22 04:18:00,71.5,68.1,29.99,SSW,211,2.0,3.0,89,0.00,,,0.00,Wunderground v.1.15,2013-08-22 09:18:00,
2013-08-22 04:24:00,71.5,68.1,29.98,SSW,211,2.0,2.0,89,0.00,,,0.00,Wunderground v.1.15,2013-08-22 09:24:00,
2013-08-22 04:30:00,71.4,68.0,29.99,SSW,211,1.0,4.0,89,0.00,,,0.00,Wunderground v.1.15,2013-08-22 09:30:00,
2013-08-22 04:36:00,71.3,67.9,29.98,SSW,211,1.0,4.0,89,0.00,,,0.00,Wunderground v.1.15,2013-08-22 09:36:00,
2013-08-22 04:42:00,71.3,67.9,29.98,SSW,211,1.0,1.0,89,0.00,,,0.00,Wunderground v.1.15,2013-08-22 09:42:00,
2013-08-22 04:48:00,71.2,67.8,29.98,SSW,211,0.0,1.0,89,0.00,,,0.00,Wunderground v.1.15,2013-08-22 09:48:00,
2013-08-22 04:54:00,71.2,68.1,29.98,SSW,211,0.0,3.0,90,0.00,,,0.00,Wunderground v.1.15,2013-08-22 09:54:00,
2013-08-22 05:02:00,71.0,67.9,29.98,SSW,211,0.0,0.0,90,0.00,,,0.00,Wunderground v.1.15,2013-08-22 10:02:00,
2013-08-22 05:08:00,71.0,67.9,29.98,SSW,211,0.0,0.0,90,0.00,,,0.00,Wunderground v.1.15,2013-08-22 10:08:00,
2013-08-22 05:14:00,71.0,67.9,29.98,SSW,211,0.0,0.0,90,0.00,,,0.00,Wunderground v.1.15,2013-08-22 10:14:00,
2013-08-22 05:20:00,71.0,67.9,29.98,SSW,211,0.0,0.0,90,0.00,,,0.00,Wunderground v.1.15,2013-08-22 10:20:00,
2013-08-22 05:26:00,71.0,67.9,29.98,SSW,211,0.0,0.0,90,0.00,,,0.00,Wunderground v.1.15,2013-08-22 10:26:00,
2013-08-22 05:32:00,71.0,67.9,29.98,SSW,211,1.0,2.0,90,0.00,,,0.00,Wunderground v.1.15,2013-08-22 10:32:00,
2013-08-22 05:38:00,70.9,67.8,29.99,SSW,208,1.0,2.0,90,0.00,,,0.00,Wunderground v.1.15,2013-08-22 10:38:00,
2013-08-22 05:44:00,70.8,68.0,30.00,SSW,208,1.0,1.0,91,0.00,,,0.00,Wunderground v.1.15,2013-08-22 10:44:00,
2013-08-22 07:30:00,70.0,68.2,30.01,East,82,0.0,0.0,94,0.05,,,0.34,Wunderground v.1.15,2013-08-22 12:30:00,
2013-08-22 07:36:00,70.0,68.2,30.02,East,82,0.0,1.0,94,0.04,,,0.34,Wunderground v.1.15,2013-08-22 12:36:00,
2013-08-22 07:42:00,70.1,68.3,30.03,East,82,0.0,0.0,94,0.00,,,0.34,Wunderground v.1.15,2013-08-22 12:42:00,
2013-08-22 07:48:00,70.0,68.2,30.03,East,82,0.0,1.0,94,0.00,,,0.34,Wunderground v.1.15,2013-08-22 12:48:00,
2013-08-22 07:54:00,70.0,68.2,30.04,East,82,1.0,3.0,94,0.00,,,0.34,Wunderground v.1.15,2013-08-22 12:54:00,
2013-08-22 08:01:00,70.0,68.5,30.07,NNW,338,2.0,2.0,95,0.00,,,0.35,Wunderground v.1.15,2013-08-22 13:01:00,
2013-08-22 08:04:00,70.0,68.2,30.08,NNE,28,2.0,2.0,94,0.49,,,0.37,Wunderground v.1.15,2013-08-22 13:04:00,
2013-08-22 08:10:00,69.8,68.0,30.08,NNW,334,2.0,9.0,94,0.88,,,0.48,Wunderground v.1.15,2013-08-22 13:10:00,
2013-08-22 08:16:00,69.4,67.3,30.08,ENE,76,3.0,9.0,93,2.58,,,0.64,Wunderground v.1.15,2013-08-22 13:16:00,
2013-08-22 08:22:00,69.1,67.0,30.07,ESE,111,4.0,4.0,93,1.32,,,0.79,Wunderground v.1.15,2013-08-22 13:22:00,
2013-08-22 08:28:00,68.2,65.8,30.07,East,82,4.0,5.0,92,0.66,,,0.88,Wunderground v.1.15,2013-08-22 13:28:00,
2013-08-22 08:34:00,67.7,65.3,30.06,East,92,2.0,3.0,92,0.29,,,0.92,Wunderground v.1.15,2013-08-22 13:34:00,
2013-08-22 08:40:00,67.4,65.3,30.06,East,88,1.0,1.0,93,0.92,,,0.98,Wunderground v.1.15,2013-08-22 13:40:00,
2013-08-22 08:46:00,67.3,65.2,30.06,East,88,1.0,1.0,93,2.17,,,1.13,Wunderground v.1.15,2013-08-22 13:46:00,
2013-08-22 08:52:00,67.2,65.4,30.05,East,88,1.0,1.0,94,1.36,,,1.28,Wunderground v.1.15,2013-08-22 13:52:00,
2013-08-22 08:58:00,67.0,65.2,30.05,East,84,1.0,1.0,94,2.44,,,1.43,Wunderground v.1.15,2013-08-22 13:58:00,
2013-08-22 09:04:00,66.8,65.0,30.03,ESE,119,1.0,3.0,94,0.19,,,1.51,Wunderground v.1.15,2013-08-22 14:04:00,
2013-08-22 09:10:00,66.9,65.4,30.04,SSE,153,2.0,3.0,95,0.13,,,1.52,Wunderground v.1.15,2013-08-22 14:10:00,
2013-08-22 09:16:00,66.9,65.4,30.03,South,179,2.0,2.0,95,0.08,,,1.53,Wunderground v.1.15,2013-08-22 14:16:00,
2013-08-22 09:22:00,67.0,65.5,30.03,SSE,163,2.0,3.0,95,0.12,,,1.54,Wunderground v.1.15,2013-08-22 14:22:00,
2013-08-22 09:28:00,67.1,65.6,30.03,South,176,1.0,3.0,95,0.08,,,1.55,Wunderground v.1.15,2013-08-22 14:28:00,
2013-08-22 09:34:00,67.2,65.7,30.03,SSW,212,2.0,4.0,95,0.06,,,1.55,Wunderground v.1.15,2013-08-22 14:34:00,
2013-08-22 09:40:00,67.5,66.0,30.03,South,175,3.0,4.0,95,0.44,,,1.59,Wunderground v.1.15,2013-08-22 14:40:00,
2013-08-22 09:46:00,67.7,66.2,30.04,SW,236,4.0,5.0,95,0.09,,,1.59,Wunderground v.1.15,2013-08-22 14:46:00,
2013-08-22 09:52:00,67.7,66.2,30.05,SW,221,5.0,5.0,95,1.09,,,1.62,Wunderground v.1.15,2013-08-22 14:52:00,
2013-08-22 09:58:00,67.4,65.9,30.05,SW,218,5.0,5.0,95,0.46,,,1.69,Wunderground v.1.15,2013-08-22 14:58:00,
2013-08-22 10:04:00,67.1,65.6,30.06,SW,217,4.0,5.0,95,0.23,,,1.72,Wunderground v.1.15,2013-08-22 15:04:00,
2013-08-22 10:10:00,66.8,65.3,30.05,SSW,213,4.0,5.0,95,0.77,,,1.82,Wunderground v.1.15,2013-08-22 15:10:00,
2013-08-22 10:16:00,66.9,65.4,30.06,SSW,211,4.0,7.0,95,1.25,,,1.92,Wunderground v.1.15,2013-08-22 15:16:00,
2013-08-22 10:22:00,67.1,65.9,30.06,SE,139,2.0,2.0,96,0.66,,,2.03,Wunderground v.1.15,2013-08-22 15:22:00,
2013-08-22 10:28:00,67.1,65.6,30.07,SE,145,0.0,2.0,95,0.19,,,2.06,Wunderground v.1.15,2013-08-22 15:28:00,
2013-08-22 10:34:00,67.1,65.6,30.07,SE,145,0.0,0.0,95,0.10,,,2.07,Wunderground v.1.15,2013-08-22 15:34:00,
2013-08-22 10:40:00,67.1,65.9,30.07,SE,145,0.0,1.0,96,0.08,,,2.07,Wunderground v.1.15,2013-08-22 15:40:00,
2013-08-22 10:46:00,67.1,65.9,30.08,SE,145,0.0,0.0,96,0.05,,,2.08,Wunderground v.1.15,2013-08-22 15:46:00,
2013-08-22 10:52:00,67.1,65.9,30.08,SE,145,0.0,0.0,96,0.05,,,2.08,Wunderground v.1.15,2013-08-22 15:52:00,
2013-08-22 10:58:00,67.0,65.8,30.08,SE,145,1.0,1.0,96,0.24,,,2.12,Wunderground v.1.15,2013-08-22 15:58:00,
2013-08-22 11:04:00,67.0,65.8,30.08,SSE,148,1.0,3.0,96,0.09,,,2.13,Wunderground v.1.15,2013-08-22 16:04:00,
2013-08-22 11:10:00,67.0,65.8,30.08,SSW,205,1.0,1.0,96,0.07,,,2.13,Wunderground v.1.15,2013-08-22 16:10:00,
2013-08-22 11:16:00,67.1,65.9,30.09,SW,224,1.0,2.0,96,0.04,,,2.13,Wunderground v.1.15,2013-08-22 16:16:00,
2013-08-22 11:22:00,67.1,65.9,30.10,SW,224,1.0,2.0,96,0.00,,,2.13,Wunderground v.1.15,2013-08-22 16:22:00,
2013-08-22 11:28:00,67.3,66.1,30.10,NE,50,3.0,7.0,96,0.00,,,2.13,Wunderground v.1.15,2013-08-22 16:28:00,
2013-08-22 11:34:00,67.6,66.4,30.09,ENE,74,5.0,5.0,96,0.00,,,2.13,Wunderground v.1.15,2013-08-22 16:34:00,
2013-08-22 11:40:00,67.8,66.6,30.10,ENE,60,4.0,5.0,96,0.00,,,2.13,Wunderground v.1.15,2013-08-22 16:40:00,
2013-08-22 11:46:00,67.7,66.5,30.09,ENE,58,5.0,11.0,96,0.00,,,2.13,Wunderground v.1.15,2013-08-22 16:46:00,
2013-08-22 11:52:00,67.7,66.5,30.09,NE,52,4.0,6.0,96,0.00,,,2.13,Wunderground v.1.15,2013-08-22 16:52:00,
2013-08-22 11:58:00,67.5,66.0,30.09,NNE,33,3.0,6.0,95,0.00,,,2.13,Wunderground v.1.15,2013-08-22 16:58:00,
2013-08-22 12:04:00,67.5,66.0,30.11,NNW,346,3.0,4.0,95,0.00,,,2.14,Wunderground v.1.15,2013-08-22 17:04:00,
2013-08-22 12:10:00,67.8,66.3,30.12,North,355,5.0,6.0,95,0.31,,,2.17,Wunderground v.1.15,2013-08-22 17:10:00,
2013-08-22 12:16:00,67.8,66.0,30.11,NE,43,5.0,6.0,94,0.50,,,2.26,Wunderground v.1.15,2013-08-22 17:16:00,
2013-08-22 12:22:00,67.7,66.2,30.09,NNW,327,5.0,6.0,95,0.34,,,2.32,Wunderground v.1.15,2013-08-22 17:22:00,
2013-08-22 12:28:00,67.6,65.8,30.09,North,5,6.0,8.0,94,0.25,,,2.36,Wunderground v.1.15,2013-08-22 17:28:00,
2013-08-22 12:34:00,67.4,65.6,30.10,NNW,344,5.0,5.0,94,0.13,,,2.38,Wunderground v.1.15,2013-08-22 17:34:00,
2013-08-22 12:40:00,67.4,65.6,30.11,NNW,333,4.0,4.0,94,0.37,,,2.42,Wunderground v.1.15,2013-08-22 17:40:00,
2013-08-22 12:46:00,67.4,65.9,30.11,NNW,348,4.0,8.0,95,0.15,,,2.44,Wunderground v.1.15,2013-08-22 17:46:00,
2013-08-22 12:52:00,67.5,66.0,30.11,NNW,347,5.0,5.0,95,0.14,,,2.45,Wunderground v.1.15,2013-08-22 17:52:00,
2013-08-22 12:58:00,67.4,65.9,30.11,NNW,339,3.0,5.0,95,0.22,,,2.47,Wunderground v.1.15,2013-08-22 17:58:00,
2013-08-22 13:04:00,67.2,65.4,30.10,NNE,14,1.0,2.0,94,0.19,,,2.49,Wunderground v.1.15,2013-08-22 18:04:00,
2013-08-22 13:10:00,67.1,65.3,30.10,NNE,26,1.0,1.0,94,0.22,,,2.51,Wunderground v.1.15,2013-08-22 18:10:00,
2013-08-22 13:16:00,67.0,65.5,30.09,NE,46,1.0,3.0,95,0.20,,,2.53,Wunderground v.1.15,2013-08-22 18:16:00,
2013-08-22 13:22:00,67.0,65.5,30.09,NE,46,0.0,1.0,95,0.14,,,2.54,Wunderground v.1.15,2013-08-22 18:22:00,
2013-08-22 13:28:00,67.0,65.5,30.09,NE,46,0.0,1.0,95,0.20,,,2.56,Wunderground v.1.15,2013-08-22 18:28:00,
2013-08-22 13:34:00,67.1,65.6,30.07,NE,46,0.0,0.0,95,0.13,,,2.57,Wunderground v.1.15,2013-08-22 18:34:00,
2013-08-22 13:40:00,67.4,65.9,30.06,NE,46,0.0,0.0,95,0.06,,,2.57,Wunderground v.1.15,2013-08-22 18:40:00,
2013-08-22 13:46:00,67.9,66.7,30.04,ENE,74,1.0,2.0,96,0.04,,,2.57,Wunderground v.1.15,2013-08-22 18:46:00,
2013-08-22 13:52:00,68.6,67.4,30.04,ENE,67,1.0,1.0,96,0.00,,,2.57,Wunderground v.1.15,2013-08-22 18:52:00,
2013-08-22 13:58:00,69.2,68.0,30.03,East,101,1.0,1.0,96,0.00,,,2.57,Wunderground v.1.15,2013-08-22 18:58:00,
2013-08-22 14:04:00,69.4,67.9,30.03,East,96,1.0,1.0,95,0.00,,,2.57,Wunderground v.1.15,2013-08-22 19:04:00,
2013-08-22 14:10:00,69.6,67.8,30.03,ENE,73,0.0,0.0,94,0.00,,,2.57,Wunderground v.1.15,2013-08-22 19:10:00,
2013-08-22 14:16:00,70.0,68.2,30.03,East,85,0.0,1.0,94,0.00,,,2.57,Wunderground v.1.15,2013-08-22 19:16:00,
2013-08-22 14:22:00,70.3,68.2,30.03,East,90,0.0,0.0,93,0.00,,,2.57,Wunderground v.1.15,2013-08-22 19:22:00,
2013-08-22 14:28:00,70.5,68.1,30.03,East,89,0.0,0.0,92,0.00,,,2.57,Wunderground v.1.15,2013-08-22 19:28:00,
2013-08-22 14:34:00,70.7,68.3,30.02,East,89,0.0,0.0,92,0.00,,,2.57,Wunderground v.1.15,2013-08-22 19:34:00,
2013-08-22 14:40:00,70.8,68.0,30.02,East,89,0.0,0.0,91,0.00,,,2.57,Wunderground v.1.15,2013-08-22 19:40:00,
2013-08-22 14:46:00,71.0,67.6,30.01,East,89,0.0,0.0,89,0.00,,,2.57,Wunderground v.1.15,2013-08-22 19:46:00,
2013-08-22 14:52:00,71.0,67.3,30.01,SE,138,0.0,0.0,88,0.00,,,2.57,Wunderground v.1.15,2013-08-22 19:52:00,
2013-08-22 14:58:00,71.1,67.7,30.01,SE,140,0.0,0.0,89,0.00,,,2.57,Wunderground v.1.15,2013-08-22 19:58:00,
2013-08-22 15:04:00,71.0,67.3,30.01,SE,137,0.0,0.0,88,0.00,,,2.57,Wunderground v.1.15,2013-08-22 20:04:00,
2013-08-22 15:10:00,71.2,67.8,30.00,SE,136,0.0,1.0,89,0.00,,,2.57,Wunderground v.1.15,2013-08-22 20:10:00,
2013-08-22 15:16:00,71.5,68.1,29.99,SE,126,0.0,1.0,89,0.00,,,2.57,Wunderground v.1.15,2013-08-22 20:16:00,
2013-08-22 15:22:00,71.9,68.5,29.99,SE,126,0.0,0.0,89,0.00,,,2.57,Wunderground v.1.15,2013-08-22 20:22:00,
2013-08-22 15:28:00,72.3,68.5,29.99,SE,126,0.0,0.0,88,0.00,,,2.57,Wunderground v.1.15,2013-08-22 20:28:00,
2013-08-22 15:34:00,72.5,68.7,29.99,SE,126,0.0,0.0,88,0.00,,,2.57,Wunderground v.1.15,2013-08-22 20:34:00,
2013-08-22 15:40:00,72.6,68.5,29.99,SE,126,0.0,0.0,87,0.00,,,2.57,Wunderground v.1.15,2013-08-22 20:40:00,
2013-08-22 15:46:00,72.8,68.7,30.00,SE,130,0.0,0.0,87,0.00,,,2.57,Wunderground v.1.15,2013-08-22 20:46:00,
2013-08-22 15:52:00,72.7,68.6,30.00,SW,234,0.0,1.0,87,0.00,,,2.57,Wunderground v.1.15,2013-08-22 20:52:00,
2013-08-22 15:58:00,72.6,68.5,30.00,SW,233,0.0,1.0,87,0.00,,,2.57,Wunderground v.1.15,2013-08-22 20:58:00,
2013-08-22 16:04:00,72.6,68.5,30.00,SW,233,0.0,0.0,87,0.00,,,2.57,Wunderground v.1.15,2013-08-22 21:04:00,
2013-08-22 16:10:00,72.5,68.4,29.99,SW,233,0.0,0.0,87,0.00,,,2.57,Wunderground v.1.15,2013-08-22 21:10:00,
2013-08-22 16:16:00,72.4,68.3,29.98,SW,233,0.0,0.0,87,0.00,,,2.57,Wunderground v.1.15,2013-08-22 21:16:00,
2013-08-22 16:22:00,72.4,68.3,29.98,SW,233,0.0,0.0,87,0.00,,,2.57,Wunderground v.1.15,2013-08-22 21:22:00,
2013-08-22 16:28:00,72.4,68.3,29.98,SW,233,0.0,0.0,87,0.00,,,2.57,Wunderground v.1.15,2013-08-22 21:28:00,
2013-08-22 16:34:00,72.2,68.1,29.96,ESE,123,0.0,0.0,87,0.00,,,2.57,Wunderground v.1.15,2013-08-22 21:34:00,
2013-08-22 16:40:00,72.0,68.2,29.97,SE,137,0.0,0.0,88,0.00,,,2.57,Wunderground v.1.15,2013-08-22 21:40:00,
2013-08-22 16:46:00,72.0,68.6,29.98,SE,137,0.0,0.0,89,0.00,,,2.57,Wunderground v.1.15,2013-08-22 21:46:00,
2013-08-22 16:52:00,72.0,68.6,29.98,SE,137,0.0,0.0,89,0.00,,,2.57,Wunderground v.1.15,2013-08-22 21:52:00,
2013-08-22 16:58:00,72.1,69.0,29.98,SSE,153,0.0,0.0,90,0.00,,,2.57,Wunderground v.1.15,2013-08-22 21:58:00,
2013-08-22 17:04:00,72.2,69.1,29.99,SSE,153,0.0,0.0,90,0.00,,,2.57,Wunderground v.1.15,2013-08-22 22:04:00,
2013-08-22 17:10:00,72.3,69.2,30.00,West,262,0.0,0.0,90,0.00,,,2.57,Wunderground v.1.15,2013-08-22 22:10:00,
2013-08-22 17:16:00,72.3,69.2,30.00,West,261,0.0,1.0,90,0.00,,,2.57,Wunderground v.1.15,2013-08-22 22:16:00,
2013-08-22 17:22:00,72.2,68.8,29.99,West,261,1.0,5.0,89,0.00,,,2.57,Wunderground v.1.15,2013-08-22 22:22:00,
2013-08-22 17:28:00,72.2,69.1,29.99,West,261,0.0,5.0,90,0.00,,,2.57,Wunderground v.1.15,2013-08-22 22:28:00,
2013-08-22 17:34:00,72.1,69.0,29.99,West,261,0.0,0.0,90,0.00,,,2.57,Wunderground v.1.15,2013-08-22 22:34:00,
2013-08-22 17:40:00,71.9,68.8,29.99,West,261,0.0,0.0,90,0.00,,,2.57,Wunderground v.1.15,2013-08-22 22:40:00,
2013-08-22 17:46:00,71.8,68.7,29.99,West,261,0.0,0.0,90,0.00,,,2.57,Wunderground v.1.15,2013-08-22 22:46:00,
2013-08-22 17:52:00,71.6,68.5,29.99,West,261,0.0,0.0,90,0.00,,,2.57,Wunderground v.1.15,2013-08-22 22:52:00,
2013-08-22 17:58:00,71.5,68.4,30.00,West,275,0.0,4.0,90,0.00,,,2.57,Wunderground v.1.15,2013-08-22 22:58:00,
2013-08-22 18:04:00,71.6,68.5,30.00,West,277,1.0,5.0,90,0.00,,,2.57,Wunderground v.1.15,2013-08-22 23:04:00,
2013-08-22 18:10:00,71.6,68.5,30.00,West,276,1.0,1.0,90,0.00,,,2.57,Wunderground v.1.15,2013-08-22 23:10:00,
2013-08-22 18:16:00,71.7,68.6,30.02,NNW,329,0.0,1.0,90,0.00,,,2.57,Wunderground v.1.15,2013-08-22 23:16:00,
2013-08-22 18:22:00,71.5,68.4,30.03,NNW,338,1.0,5.0,90,0.00,,,2.57,Wunderground v.1.15,2013-08-22 23:22:00,
2013-08-22 18:28:00,71.3,68.2,30.03,NNW,340,2.0,5.0,90,0.00,,,2.57,Wunderground v.1.15,2013-08-22 23:28:00,
2013-08-22 18:34:00,71.3,68.2,30.03,NNW,339,2.0,5.0,90,0.00,,,2.57,Wunderground v.1.15,2013-08-22 23:34:00,
2013-08-22 18:40:00,71.2,68.1,30.03,NNW,340,1.0,1.0,90,0.00,,,2.57,Wunderground v.1.15,2013-08-22 23:40:00,
2013-08-22 18:46:00,71.1,68.0,30.03,NNW,340,0.0,1.0,90,0.00,,,2.57,Wunderground v.1.15,2013-08-22 23:46:00,
2013-08-22 18:52:00,71.0,67.9,30.03,NNW,340,0.0,0.0,90,0.00,,,2.57,Wunderground v.1.15,2013-08-22 23:52:00,
2013-08-22 18:58:00,70.9,67.8,30.03,NNW,340,0.0,0.0,90,0.00,,,2.57,Wunderground v.1.15,2013-08-22 23:58:00,
2013-08-22 19:04:00,70.8,68.0,30.03,NNW,340,0.0,0.0,91,0.00,,,2.57,Wunderground v.1.15,2013-08-23 00:04:00,
2013-08-22 19:10:00,70.7,67.9,30.03,NNW,340,0.0,0.0,91,0.00,,,2.57,Wunderground v.1.15,2013-08-23 00:10:00,
2013-08-22 19:16:00,70.5,67.7,30.03,NNW,340,0.0,0.0,91,0.00,,,2.57,Wunderground v.1.15,2013-08-23 00:16:00,
2013-08-22 19:22:00,70.3,67.5,30.03,NNW,340,0.0,0.0,91,0.00,,,2.57,Wunderground v.1.15,2013-08-23 00:22:00,
2013-08-22 19:28:00,70.2,67.4,30.03,NNW,340,0.0,0.0,91,0.00,,,2.57,Wunderground v.1.15,2013-08-23 00:28:00,
2013-08-22 19:34:00,70.0,67.3,30.04,NNW,340,0.0,0.0,91,0.00,,,2.57,Wunderground v.1.15,2013-08-23 00:34:00,
2013-08-22 19:40:00,69.9,67.2,30.04,NNW,340,0.0,0.0,91,0.00,,,2.57,Wunderground v.1.15,2013-08-23 00:40:00,
2013-08-22 19:46:00,69.8,67.1,30.04,NNW,340,0.0,0.0,91,0.00,,,2.57,Wunderground v.1.15,2013-08-23 00:46:00,
2013-08-22 19:52:00,69.7,67.0,30.04,NNW,340,0.0,0.0,91,0.00,,,2.57,Wunderground v.1.15,2013-08-23 00:52:00,
2013-08-22 19:58:00,69.5,67.1,30.04,NNW,340,0.0,0.0,92,0.00,,,2.57,Wunderground v.1.15,2013-08-23 00:58:00,
2013-08-22 20:04:00,69.3,66.9,30.04,NNW,340,0.0,0.0,92,0.00,,,2.57,Wunderground v.1.15,2013-08-23 01:04:00,
2013-08-22 20:10:00,69.2,66.8,30.04,NNW,340,0.0,0.0,92,0.00,,,2.57,Wunderground v.1.15,2013-08-23 01:10:00,
2013-08-22 20:16:00,69.0,66.6,30.05,NNW,340,0.0,0.0,92,0.00,,,2.57,Wunderground v.1.15,2013-08-23 01:16:00,
2013-08-22 20:22:00,68.9,66.5,30.05,NNW,340,0.0,0.0,92,0.00,,,2.57,Wunderground v.1.15,2013-08-23 01:22:00,
2013-08-22 20:28:00,68.8,66.7,30.05,NNW,340,0.0,0.0,93,0.00,,,2.57,Wunderground v.1.15,2013-08-23 01:28:00,
2013-08-22 20:34:00,68.6,66.5,30.05,NNW,340,0.0,0.0,93,0.00,,,2.57,Wunderground v.1.15,2013-08-23 01:34:00,
2013-08-22 20:40:00,68.4,66.3,30.05,NNW,340,0.0,0.0,93,0.00,,,2.57,Wunderground v.1.15,2013-08-23 01:40:00,
2013-08-22 20:46:00,68.2,66.1,30.05,NNW,340,0.0,0.0,93,0.00,,,2.57,Wunderground v.1.15,2013-08-23 01:46:00,
2013-08-22 20:52:00,68.0,65.9,30.06,NNW,340,0.0,0.0,93,0.00,,,2.57,Wunderground v.1.15,2013-08-23 01:52:00,
2013-08-22 20:58:00,67.9,65.8,30.06,NNW,340,0.0,0.0,93,0.00,,,2.57,Wunderground v.1.15,2013-08-23 01:58:00,
2013-08-22 21:04:00,67.7,65.6,30.06,NNW,340,0.0,0.0,93,0.00,,,2.57,Wunderground v.1.15,2013-08-23 02:04:00,
2013-08-22 21:10:00,67.4,65.3,30.06,NNW,340,0.0,0.0,93,0.00,,,2.57,Wunderground v.1.15,2013-08-23 02:10:00,
2013-08-22 21:16:00,67.2,65.1,30.06,NNW,340,0.0,0.0,93,0.00,,,2.57,Wunderground v.1.15,2013-08-23 02:16:00,
2013-08-22 21:22:00,67.0,64.9,30.06,NNW,340,0.0,0.0,93,0.00,,,2.57,Wunderground v.1.15,2013-08-23 02:22:00,
2013-08-22 21:28:00,66.8,64.7,30.06,NNW,340,0.0,0.0,93,0.00,,,2.57,Wunderground v.1.15,2013-08-23 02:28:00,
2013-08-22 21:34:00,66.4,64.3,30.06,NNW,340,0.0,0.0,93,0.00,,,2.57,Wunderground v.1.15,2013-08-23 02:34:00,
2013-08-22 21:40:00,66.1,64.3,30.06,NNW,340,0.0,0.0,94,0.00,,,2.57,Wunderground v.1.15,2013-08-23 02:40:00,
2013-08-22 21:46:00,66.0,64.2,30.06,NNW,340,0.0,0.0,94,0.00,,,2.57,Wunderground v.1.15,2013-08-23 02:46:00,
2013-08-22 21:52:00,65.8,64.0,30.06,NNW,340,0.0,0.0,94,0.00,,,2.57,Wunderground v.1.15,2013-08-23 02:52:00,
2013-08-22 21:58:00,65.7,63.9,30.06,NNW,340,0.0,0.0,94,0.00,,,2.57,Wunderground v.1.15,2013-08-23 02:58:00,
2013-08-22 22:04:00,65.5,63.7,30.06,NNW,340,0.0,0.0,94,0.00,,,2.57,Wunderground v.1.15,2013-08-23 03:04:00,
2013-08-22 22:10:00,65.3,63.5,30.06,NNW,340,0.0,0.0,94,0.00,,,2.57,Wunderground v.1.15,2013-08-23 03:10:00,
2013-08-22 22:16:00,65.1,63.3,30.06,NNW,340,0.0,0.0,94,0.00,,,2.57,Wunderground v.1.15,2013-08-23 03:16:00,
2013-08-22 22:22:00,64.9,63.1,30.06,NNW,340,0.0,0.0,94,0.00,,,2.57,Wunderground v.1.15,2013-08-23 03:22:00,
2013-08-22 22:28:00,64.7,62.9,30.06,NNW,340,0.0,0.0,94,0.00,,,2.57,Wunderground v.1.15,2013-08-23 03:28:00,
2013-08-22 22:34:00,64.5,62.7,30.06,NNW,340,0.0,0.0,94,0.00,,,2.57,Wunderground v.1.15,2013-08-23 03:34:00,
2013-08-22 22:40:00,64.3,62.5,30.06,NNW,340,0.0,0.0,94,0.00,,,2.57,Wunderground v.1.15,2013-08-23 03:40:00,
2013-08-22 22:46:00,64.2,62.4,30.06,NNW,340,0.0,0.0,94,0.00,,,2.57,Wunderground v.1.15,2013-08-23 03:46:00,
2013-08-22 22:52:00,64.1,62.3,30.06,NNW,340,0.0,0.0,94,0.00,,,2.57,Wunderground v.1.15,2013-08-23 03:52:00,
2013-08-22 22:58:00,63.9,62.1,30.06,NNW,340,0.0,0.0,94,0.00,,,2.57,Wunderground v.1.15,2013-08-23 03:58:00,
2013-08-22 23:02:00,63.9,62.4,30.06,NNW,340,0.0,0.0,95,0.00,,,2.57,Wunderground v.1.15,2013-08-23 04:02:00,
2013-08-22 23:04:00,63.8,62.3,30.06,NNW,340,0.0,0.0,95,0.00,,,2.57,Wunderground v.1.15,2013-08-23 04:04:00,
2013-08-22 23:06:00,63.8,62.3,30.06,NNW,340,0.0,0.0,95,0.00,,,2.57,Wunderground v.1.15,2013-08-23 04:06:00,
2013-08-22 23:08:00,63.8,62.3,30.06,NNW,340,0.0,0.0,95,0.00,,,2.57,Wunderground v.1.15,2013-08-23 04:08:00,
2013-08-22 23:14:00,63.6,62.1,30.06,NNW,340,0.0,0.0,95,0.00,,,2.57,Wunderground v.1.15,2013-08-23 04:14:00,
2013-08-22 23:20:00,63.4,61.6,30.06,NNW,340,0.0,0.0,94,0.00,,,2.57,Wunderground v.1.15,2013-08-23 04:20:00,
2013-08-22 23:26:00,63.2,61.7,30.06,NNW,340,0.0,0.0,95,0.00,,,2.57,Wunderground v.1.15,2013-08-23 04:26:00,
2013-08-22 23:28:00,63.2,61.7,30.06,NNW,340,0.0,0.0,95,0.00,,,2.57,Wunderground v.1.15,2013-08-23 04:28:00,
2013-08-22 23:34:00,63.3,61.8,30.06,NNW,340,0.0,0.0,95,0.00,,,2.57,Wunderground v.1.15,2013-08-23 04:34:00,
2013-08-22 23:40:00,63.4,61.9,30.07,NNW,340,0.0,0.0,95,0.00,,,2.57,Wunderground v.1.15,2013-08-23 04:40:00,
2013-08-22 23:46:00,63.2,61.7,30.07,NNW,340,0.0,0.0,95,0.00,,,2.57,Wunderground v.1.15,2013-08-23 04:46:00,
2013-08-22 23:52:00,63.0,61.5,30.07,NNW,340,0.0,0.0,95,0.00,,,2.57,Wunderground v.1.15,2013-08-23 04:52:00,
2013-08-22 23:58:00,62.9,61.4,30.07,NNW,340,0.0,0.0,95,0.00,,,2.57,Wunderground v.1.15,2013-08-23 04:58:00,